DW4736 Weather Reports


Display with metric or nautical units.
time (UTC)temp
F
wind
direction
speed
MPH
gust
MPH
rain 1hr
in
rain 24hr
in
rain mn
in
humidity
%
barometer
mb
20201124091252 38 31 0.0 7.0 0.00 0.00 0.00 95 1025.6
20201124090744 37 134 3.0 7.0 0.00 0.00 0.00 95 1025.6
20201124090249 37 17 0.0 4.0 0.00 0.00 0.00 96 1025.7
20201124085742 36 164 0.0 3.0 0.00 0.00 0.00 96 1025.7
20201124085244 36 134 0.0 7.0 0.00 0.00 0.00 96 1025.7
20201124084743 36 134 0.0 9.0 0.00 0.00 0.00 97 1025.7
20201124084247 35 145 3.0 9.0 0.00 0.00 0.00 97 1025.7
20201124083744 34 135 0.0 2.0 0.00 0.00 0.00 97 1025.7
20201124083250 32 353 0.0 2.0 0.00 0.00 0.00 97 1025.7
20201124082743 31 353 0.0 2.0 0.00 0.00 0.00 97 1025.7
20201124082242 31 78 0.0 0.0 0.00 0.00 0.00 97 1025.7
20201124081749 30 204 0.0 3.0 0.00 0.00 0.00 96 1025.7
20201124081244 30 204 0.0 3.0 0.00 0.00 0.00 96 1025.8
20201124080744 30 97 0.0 0.0 0.00 0.00 0.00 96 1025.8
20201124080248 30 97 0.0 0.0 0.00 0.00 0.00 96 1025.8
20201124075748 29 97 0.0 0.0 0.00 0.00 0.00 96 1025.8
20201124075234 29 97 0.0 0.0 0.00 0.00 0.00 96 1026.0
20201124074743 29 0 0.0 0.0 0.00 0.00 0.00 96 1026.1
20201124074235 29 0 0.0 0.0 0.00 0.00 0.00 96 1026.0
20201124073738 29 0 0.0 2.0 0.00 0.00 0.00 96 1026.1
20201124073315 29 0 0.0 2.0 0.00 0.00 0.00 96 1026.2
20201124072736 29 0 0.0 2.0 0.00 0.00 0.00 96 1026.2
20201124072234 29 0 0.0 0.0 0.00 0.00 0.00 96 1026.1
20201124071739 29 0 0.0 0.0 0.00 0.00 0.00 96 1026.1
20201124071232 29 0 0.0 0.0 0.00 0.00 0.00 96 1026.1
20201124070735 29 0 0.0 0.0 0.00 0.00 0.00 96 1026.1
20201124070233 29 0 0.0 0.0 0.00 0.00 0.00 96 1026.1
20201124065737 29 0 0.0 0.0 0.00 0.00 0.00 96 1026.1
20201124065234 29 0 0.0 0.0 0.00 0.00 0.00 96 1026.1
20201124064737 29 0 0.0 0.0 0.00 0.00 0.00 96 1026.1
20201124064231 29 0 0.0 0.0 0.00 0.00 0.00 96 1026.1
20201124063737 29 0 0.0 0.0 0.00 0.00 0.00 96 1026.1
20201124063321 29 0 0.0 0.0 0.00 0.00 0.00 96 1026.0
20201124062738 29 0 0.0 0.0 0.00 0.00 0.00 96 1026.1
20201124062243 29 0 0.0 0.0 0.00 0.00 0.00 96 1026.1
20201124061737 29 0 0.0 0.0 0.00 0.00 0.00 96 1026.0
20201124061236 29 0 0.0 2.0 0.00 0.00 0.00 96 1026.0
20201124060735 29 0 0.0 3.0 0.00 0.00 0.00 96 1026.1
20201124060308 29 0 1.0 3.0 0.00 0.00 0.00 96 1026.0
20201124055736 29 0 0.0 0.0 0.00 0.00 0.00 96 1025.9
20201124055242 29 0 0.0 0.0 0.00 0.00 0.00 96 1025.8
20201124054739 29 0 0.0 0.0 0.00 0.00 0.00 96 1026.0
20201124054238 29 0 0.0 2.0 0.00 0.00 0.00 96 1025.9
20201124053733 29 0 1.0 2.0 0.00 0.00 0.00 96 1025.9
20201124053245 29 0 0.0 2.0 0.00 0.00 0.00 96 1026.0
20201124052732 29 0 0.0 0.0 0.00 0.00 0.00 96 1025.9
20201124052230 29 0 0.0 2.0 0.00 0.00 0.00 96 1025.9
20201124051731 29 0 0.0 2.0 0.00 0.00 0.00 96 1025.9
20201124051238 29 0 2.0 2.0 0.00 0.00 0.00 96 1026.0
20201124050728 29 0 2.0 2.0 0.00 0.00 0.00 96 1026.0
20201124050232 29 0 0.0 1.0 0.00 0.00 0.00 96 1025.9
20201124045730 29 0 0.0 0.0 0.00 0.00 0.00 95 1025.9
20201124045231 29 0 0.0 0.0 0.00 0.00 0.00 95 1025.9
20201124044733 29 0 0.0 0.0 0.00 0.00 0.00 95 1026.1
20201124044233 29 0 0.0 0.0 0.00 0.00 0.00 95 1026.1
20201124043732 29 0 0.0 0.0 0.00 0.00 0.00 95 1025.9
20201124043234 29 0 0.0 0.0 0.00 0.00 0.00 95 1026.0
20201124042730 29 0 0.0 0.0 0.00 0.00 0.00 95 1026.1
20201124042233 29 0 0.0 0.0 0.00 0.00 0.00 95 1026.0
20201124041729 29 0 0.0 0.0 0.00 0.00 0.00 95 1025.9
20201124041230 29 0 0.0 0.0 0.00 0.00 0.00 95 1026.1
20201124040732 29 0 0.0 0.0 0.00 0.00 0.00 95 1026.1
20201124040229 29 0 0.0 0.0 0.00 0.00 0.00 95 1026.1
20201124035729 29 0 0.0 0.0 0.00 0.00 0.00 95 1026.2
20201124035227 29 0 0.0 0.0 0.00 0.00 0.00 95 1026.2
20201124034728 29 0 0.0 0.0 0.00 0.00 0.00 95 1026.3
20201124034227 29 0 0.0 0.0 0.00 0.00 0.00 95 1026.2
20201124033729 29 0 0.0 0.0 0.00 0.01 0.00 95 1026.3
20201124033230 29 0 0.0 0.0 0.00 0.01 0.00 95 1026.3
20201124032734 29 0 0.0 0.0 0.00 0.01 0.00 95 1026.5
20201124032230 29 0 0.0 0.0 0.00 0.01 0.00 95 1026.5
20201124031735 29 0 0.0 0.0 0.00 0.01 0.00 95 1026.5
20201124031228 29 0 0.0 0.0 0.00 0.01 0.00 95 1026.6
20201124030737 29 0 0.0 0.0 0.00 0.01 0.00 95 1026.6
20201124030231 30 0 0.0 0.0 0.00 0.01 0.00 95 1026.6
20201124025733 30 0 0.0 0.0 0.00 0.01 0.00 95 1026.7
20201124025231 30 0 0.0 0.0 0.00 0.01 0.00 95 1026.7
20201124024731 30 0 0.0 0.0 0.00 0.01 0.00 95 1026.8
20201124024230 30 0 0.0 0.0 0.00 0.01 0.00 95 1026.9
20201124023733 30 0 0.0 0.0 0.00 0.01 0.00 95 1027.0
20201124023226 30 0 0.0 0.0 0.00 0.01 0.00 95 1027.0
20201124022734 30 0 0.0 0.0 0.00 0.01 0.00 95 1027.0
20201124022230 30 0 0.0 0.0 0.00 0.01 0.00 95 1027.2
20201124021728 30 0 0.0 0.0 0.00 0.01 0.00 95 1027.2
20201124021225 30 0 0.0 0.0 0.00 0.01 0.00 95 1027.4
20201124020725 30 0 0.0 0.0 0.00 0.01 0.00 95 1027.5
20201124020227 30 0 0.0 4.0 0.00 0.01 0.00 95 1027.4
20201124015730 30 0 0.0 4.0 0.00 0.01 0.00 95 1027.6
20201124015225 30 0 1.0 3.0 0.00 0.01 0.00 95 1027.5
20201124014725 30 154 1.0 3.0 0.00 0.01 0.00 95 1027.6
20201124014223 30 0 0.0 0.0 0.00 0.01 0.00 95 1027.5
20201124013731 30 0 0.0 0.0 0.00 0.01 0.00 95 1027.5
20201124013225 30 0 0.0 2.0 0.00 0.01 0.00 95 1027.5
20201124012725 30 0 1.0 2.0 0.00 0.01 0.00 95 1027.5
20201124012230 30 0 1.0 2.0 0.00 0.01 0.00 95 1027.6
20201124011743 30 0 1.0 2.0 0.00 0.01 0.00 95 1027.6
20201124011226 30 0 0.0 0.0 0.00 0.01 0.00 95 1027.6
20201124010727 30 0 0.0 0.0 0.00 0.01 0.00 95 1027.6
20201124010243 30 0 0.0 0.0 0.00 0.01 0.00 95 1027.7
20201124005725 30 0 0.0 0.0 0.00 0.01 0.00 95 1027.8
20201124005228 30 0 0.0 0.0 0.00 0.01 0.00 95 1027.7
20201124004724 30 0 0.0 0.0 0.00 0.01 0.00 95 1027.7
20201124004231 30 0 0.0 0.0 0.00 0.01 0.00 95 1027.8
20201124003723 30 0 0.0 0.0 0.00 0.01 0.00 95 1027.9
20201124003226 30 0 0.0 0.0 0.00 0.01 0.00 95 1028.1
20201124002720 30 0 0.0 0.0 0.00 0.01 0.00 95 1028.0
20201124002229 30 0 0.0 0.0 0.00 0.01 0.00 94 1028.1
20201124001721 30 0 0.0 0.0 0.00 0.01 0.00 94 1028.1
20201124001225 31 0 0.0 2.0 0.00 0.01 0.00 94 1028.1
20201124000721 31 0 0.0 2.0 0.00 0.01 0.00 94 1028.2
20201124000325 31 0 0.0 0.0 0.00 0.01 0.00 94 1028.2
20201123235719 31 0 0.0 0.0 0.00 0.01 0.00 94 1028.1
20201123235222 31 0 0.0 0.0 0.00 0.01 0.00 94 1028.2
20201123234714 31 0 0.0 0.0 0.00 0.01 0.00 94 1028.1
20201123234217 31 0 0.0 0.0 0.00 0.01 0.00 94 1028.2
20201123233713 31 0 0.0 0.0 0.00 0.01 0.00 94 1028.2
20201123233214 31 0 0.0 0.0 0.00 0.01 0.00 94 1028.2
20201123232712 31 0 0.0 0.0 0.00 0.01 0.00 94 1028.3
20201123232211 31 0 0.0 0.0 0.00 0.01 0.00 94 1028.5
20201123231713 31 0 0.0 0.0 0.00 0.01 0.00 94 1028.4
20201123231211 31 0 0.0 0.0 0.00 0.01 0.00 94 1028.4
20201123230712 31 0 0.0 0.0 0.00 0.01 0.00 94 1028.2
20201123230213 31 0 0.0 0.0 0.00 0.01 0.00 94 1028.2
20201123225711 31 0 0.0 1.0 0.00 0.01 0.01 94 1028.1
20201123225204 31 0 0.0 1.0 0.00 0.01 0.01 94 1028.2
20201123224715 31 0 0.0 0.0 0.00 0.01 0.01 94 1028.1
20201123224208 31 0 0.0 0.0 0.00 0.01 0.01 94 1028.1
20201123223708 31 0 0.0 0.0 0.00 0.01 0.01 94 1028.1
20201123223203 31 0 0.0 1.0 0.00 0.01 0.01 94 1028.2
20201123222706 31 0 0.0 1.0 0.00 0.01 0.01 94 1028.1
20201123222210 31 0 0.0 0.0 0.00 0.01 0.01 94 1028.2
20201123221705 31 0 0.0 0.0 0.00 0.01 0.01 94 1028.3
20201123221207 31 0 0.0 0.0 0.00 0.01 0.01 94 1028.2
20201123220706 31 0 0.0 0.0 0.00 0.01 0.01 93 1028.2
20201123220246 31 0 0.0 0.0 0.00 0.01 0.01 93 1028.3
20201123215718 32 0 0.0 0.0 0.00 0.01 0.01 93 1028.4
20201123215205 32 0 0.0 0.0 0.00 0.01 0.01 93 1028.3
20201123214712 32 0 0.0 0.0 0.00 0.01 0.01 93 1028.3
20201123214206 32 0 0.0 0.0 0.00 0.01 0.01 93 1028.4
20201123213714 32 0 0.0 0.0 0.00 0.01 0.01 93 1028.3
20201123213205 32 0 0.0 0.0 0.00 0.01 0.01 93 1028.4
20201123212718 32 0 0.0 0.0 0.00 0.01 0.01 93 1028.5
20201123212212 32 0 0.0 0.0 0.00 0.01 0.01 93 1028.3
20201123211712 32 0 0.0 0.0 0.00 0.01 0.01 93 1028.4
20201123211211 32 0 0.0 0.0 0.00 0.01 0.01 93 1028.4
20201123210712 33 0 0.0 2.0 0.00 0.01 0.01 93 1028.2
20201123210208 33 0 0.0 2.0 0.00 0.01 0.01 93 1028.1
20201123205703 33 0 1.0 2.0 0.00 0.01 0.01 92 1028.0
20201123205209 33 0 0.0 0.0 0.00 0.01 0.01 92 1028.0
20201123204701 33 0 0.0 0.0 0.00 0.01 0.01 92 1028.0
20201123204203 33 0 0.0 0.0 0.00 0.01 0.01 92 1028.0
20201123203700 33 0 0.0 0.0 0.00 0.01 0.01 92 1028.0
20201123203204 33 0 0.0 0.0 0.00 0.01 0.01 92 1028.0
20201123202700 33 0 0.0 2.0 0.00 0.01 0.01 92 1027.9
20201123202202 33 0 0.0 3.0 0.00 0.01 0.01 92 1027.9
20201123201659 34 0 2.0 3.0 0.00 0.01 0.01 92 1027.8
20201123201157 34 295 0.0 0.0 0.00 0.01 0.01 92 1027.8
20201123200657 34 295 0.0 0.0 0.00 0.01 0.01 91 1027.8
20201123200204 34 295 0.0 0.0 0.00 0.01 0.01 91 1027.6
20201123195700 34 295 0.0 0.0 0.00 0.01 0.01 91 1027.6
20201123195157 34 295 0.0 0.0 0.00 0.01 0.01 91 1027.6
20201123194701 35 295 0.0 0.0 0.00 0.01 0.01 91 1027.6
20201123194152 35 295 0.0 0.0 0.00 0.01 0.01 91 1027.5
20201123193639 35 295 0.0 1.0 0.00 0.01 0.01 91 1027.5
20201123193147 35 295 0.0 1.0 0.00 0.01 0.01 91 1027.5
20201123192639 35 295 0.0 1.0 0.00 0.01 0.01 90 1027.5
20201123192134 35 295 0.0 1.0 0.00 0.01 0.01 90 1027.5
20201123191633 35 295 0.0 0.0 0.00 0.01 0.01 90 1027.5
20201123191137 35 295 0.0 0.0 0.00 0.01 0.01 90 1027.6
20201123190635 36 295 0.0 0.0 0.00 0.01 0.01 90 1027.4
20201123190138 36 295 0.0 0.0 0.00 0.01 0.01 90 1027.3
20201123185638 36 295 0.0 0.0 0.00 0.01 0.01 90 1027.4
20201123185133 36 295 0.0 0.0 0.00 0.01 0.01 90 1027.4
20201123184630 36 295 0.0 0.0 0.00 0.01 0.01 89 1027.4
20201123184134 37 295 0.0 0.0 0.00 0.01 0.01 89 1027.3
20201123183637 37 295 0.0 0.0 0.00 0.01 0.01 89 1027.3
20201123183136 37 295 0.0 0.0 0.00 0.01 0.01 89 1027.3
20201123182632 37 295 0.0 0.0 0.00 0.01 0.01 89 1027.3
20201123182130 37 295 0.0 0.0 0.00 0.01 0.01 89 1027.2
20201123181632 37 295 0.0 0.0 0.00 0.01 0.01 89 1027.2
20201123181144 38 295 0.0 0.0 0.00 0.01 0.01 89 1027.0
20201123180630 38 295 0.0 0.0 0.00 0.01 0.01 89 1027.1
20201123180137 38 295 0.0 0.0 0.00 0.01 0.01 89 1027.0
20201123175630 38 295 0.0 0.0 0.00 0.01 0.01 88 1027.0
20201123175126 38 295 0.0 0.0 0.00 0.01 0.01 88 1027.1
20201123174629 38 295 0.0 0.0 0.00 0.01 0.01 88 1027.0
20201123174131 39 295 0.0 0.0 0.00 0.01 0.01 88 1027.0
20201123173628 39 295 0.0 0.0 0.00 0.01 0.01 88 1027.0
20201123173127 39 295 0.0 0.0 0.00 0.01 0.01 88 1027.0
20201123172623 40 295 0.0 0.0 0.00 0.01 0.01 88 1027.0
20201123172124 40 295 0.0 0.0 0.00 0.01 0.01 88 1026.7
20201123171621 40 295 0.0 0.0 0.00 0.01 0.01 88 1026.7
20201123171126 40 295 0.0 0.0 0.00 0.01 0.01 87 1026.7
20201123170628 40 295 0.0 0.0 0.00 0.01 0.01 87 1026.6
20201123170131 40 295 0.0 0.0 0.00 0.01 0.01 88 1026.7
20201123165619 41 295 0.0 0.0 0.00 0.01 0.01 88 1026.6
20201123165117 41 295 0.0 0.0 0.00 0.01 0.01 87 1026.6
20201123164618 41 295 0.0 0.0 0.00 0.01 0.01 87 1026.7
20201123164115 41 295 0.0 0.0 0.00 0.01 0.01 87 1026.6
20201123163622 41 295 0.0 0.0 0.00 0.01 0.01 86 1026.5
20201123163121 41 295 0.0 0.0 0.00 0.01 0.01 86 1026.6
20201123162617 41 295 0.0 0.0 0.00 0.02 0.01 85 1026.5
20201123162113 41 295 0.0 0.0 0.00 0.02 0.01 85 1026.5
20201123161620 41 295 0.0 0.0 0.00 0.02 0.01 84 1026.1
20201123161110 42 295 0.0 0.0 0.00 0.02 0.01 83 1026.1
20201123160604 42 295 0.0 0.0 0.00 0.02 0.01 83 1026.0
20201123160126 42 295 0.0 0.0 0.00 0.02 0.01 82 1026.0
20201123155610 42 295 0.0 0.0 0.00 0.02 0.01 82 1026.0
20201123155113 43 295 0.0 0.0 0.00 0.02 0.01 82 1026.0
20201123154619 43 295 0.0 0.0 0.00 0.02 0.01 81 1025.9
20201123154128 43 295 0.0 0.0 0.00 0.02 0.01 80 1025.9
20201123153603 44 295 0.0 0.0 0.00 0.02 0.01 80 1025.8
20201123153109 44 295 0.0 0.0 0.00 0.03 0.01 79 1025.8
20201123152609 45 295 0.0 0.0 0.00 0.03 0.01 79 1025.7
20201123152113 45 295 0.0 0.0 0.00 0.03 0.01 79 1025.7
20201123151604 45 295 0.0 0.0 0.00 0.03 0.01 79 1025.7
20201123151113 46 295 0.0 2.0 0.00 0.03 0.01 79 1025.5
20201123150614 46 295 0.0 2.0 0.00 0.03 0.01 78 1025.6
20201123150133 46 289 0.0 3.0 0.00 0.03 0.01 78 1025.5
20201123145607 46 336 0.0 6.0 0.00 0.03 0.01 78 1025.5
20201123145103 46 358 1.0 6.0 0.00 0.03 0.01 78 1025.5
20201123144556 47 312 1.0 7.0 0.00 0.03 0.01 78 1025.4
20201123144101 47 331 5.0 9.0 0.00 0.03 0.01 78 1025.4
20201123143557 47 300 1.0 9.0 0.00 0.03 0.01 78 1025.3
20201123143057 47 319 3.0 9.0 0.00 0.03 0.01 78 1025.3
20201123142555 47 268 3.0 11.0 0.00 0.03 0.01 78 1025.3
20201123142057 47 283 2.0 11.0 0.00 0.03 0.01 78 1025.2
20201123141559 47 265 1.0 7.0 0.00 0.03 0.01 78 1025.0
20201123141102 47 285 3.0 6.0 0.00 0.03 0.01 78 1025.0
20201123140555 47 235 2.0 7.0 0.00 0.03 0.01 78 1025.0
20201123140120 47 289 3.0 7.0 0.00 0.03 0.01 78 1024.9
20201123135552 47 262 1.0 7.0 0.00 0.03 0.01 78 1024.9
20201123135052 47 20 3.0 13.0 0.00 0.03 0.01 78 1024.9
20201123134550 47 354 4.0 13.0 0.00 0.03 0.01 78 1024.8
20201123134049 47 341 4.0 12.0 0.00 0.03 0.01 78 1024.7
20201123133546 47 240 4.0 12.0 0.00 0.03 0.01 77 1024.6
20201123133048 47 351 5.0 11.0 0.00 0.03 0.01 78 1024.7
20201123132550 47 324 6.0 12.0 0.00 0.03 0.01 78 1024.7
20201123132040 47 316 2.0 12.0 0.00 0.03 0.01 79 1024.7
20201123131548 47 13 3.0 11.0 0.00 0.03 0.01 79 1024.6
20201123131048 47 336 3.0 9.0 0.00 0.03 0.01 79 1024.6
20201123130545 47 344 1.0 13.0 0.00 0.03 0.01 79 1024.7
20201123130056 46 295 6.0 13.0 0.00 0.03 0.01 79 1024.6
20201123125546 47 265 2.0 10.0 0.00 0.03 0.01 79 1024.5
20201123125037 47 302 6.0 10.0 0.00 0.03 0.01 78 1024.4
20201123124554 47 333 4.0 10.0 0.00 0.03 0.01 78 1024.5
20201123124040 47 310 5.0 10.0 0.00 0.03 0.01 79 1024.4
20201123123546 47 326 3.0 13.0 0.00 0.03 0.01 79 1024.3
20201123123040 47 334 4.0 13.0 0.00 0.03 0.01 78 1024.2
20201123122546 47 358 2.0 10.0 0.00 0.03 0.01 78 1024.3
20201123122040 47 340 2.0 11.0 0.00 0.03 0.01 79 1024.3
20201123121544 47 351 5.0 11.0 0.00 0.03 0.01 79 1024.3
20201123121039 47 327 5.0 7.0 0.00 0.03 0.01 79 1024.2
20201123120545 47 255 3.0 15.0 0.00 0.03 0.01 78 1024.3
20201123120353 48 252 9.0 16.0 0.00 0.03 0.01 78 1024.4
20201123120107 48 207 4.0 11.0 0.00 0.03 0.01 78 1024.3
20201123114539 48 283 6.0 11.0 0.00 0.03 0.01 79 1024.2
20201123114039 48 4 4.0 10.0 0.00 0.03 0.01 79 1024.2
20201123113542 48 302 6.0 10.0 0.00 0.03 0.01 78 1024.2
20201123113039 48 272 4.0 10.0 0.00 0.03 0.01 79 1024.3
20201123112546 48 316 3.0 20.0 0.00 0.03 0.01 80 1024.2
20201123112116 48 268 5.0 20.0 0.00 0.03 0.01 80 1024.2
20201123111543 48 353 5.0 15.0 0.00 0.03 0.01 80 1024.2
20201123111046 48 266 3.0 11.0 0.00 0.03 0.01 80 1024.1
20201123110543 48 0 6.0 11.0 0.00 0.03 0.01 80 1024.1
20201123110053 48 330 4.0 13.0 0.00 0.03 0.01 81 1024.1
20201123105535 47 344 7.0 13.0 0.00 0.03 0.01 81 1024.1
20201123105040 47 320 2.0 9.0 0.00 0.03 0.01 81 1024.1
20201123104552 48 341 4.0 12.0 0.00 0.03 0.01 81 1024.2
20201123104043 47 244 6.0 12.0 0.00 0.03 0.01 82 1024.2
20201123103541 47 338 2.0 14.0 0.00 0.03 0.01 82 1024.1
20201123103109 47 310 6.0 14.0 0.00 0.03 0.01 82 1024.2
20201123102536 47 314 3.0 12.0 0.00 0.03 0.01 84 1024.1
20201123102036 47 213 4.0 12.0 0.00 0.03 0.01 84 1024.2
20201123101535 47 6 5.0 13.0 0.00 0.03 0.01 85 1024.2
20201123101040 47 327 6.0 13.0 0.00 0.03 0.01 86 1024.3
20201123100531 47 313 2.0 5.0 0.00 0.03 0.01 88 1024.2
20201123100041 47 358 0.0 5.0 0.00 0.03 0.01 90 1024.2
20201123095530 46 286 1.0 12.0 0.00 0.03 0.01 91 1024.3
20201123095037 46 316 2.0 12.0 0.00 0.03 0.01 92 1024.3
20201123094536 46 247 1.0 5.0 0.00 0.03 0.01 93 1024.3
20201123094045 45 302 0.0 5.0 0.00 0.03 0.01 93 1024.2
20201123093535 45 302 1.0 6.0 0.00 0.03 0.01 94 1024.2
20201123093039 45 307 1.0 6.0 0.00 0.03 0.01 94 1024.3
20201123092536 45 331 0.0 5.0 0.00 0.03 0.01 94 1024.2
20201123092035 45 276 0.0 5.0 0.00 0.03 0.01 95 1024.1